Regional Weather Roundup
Issued by NWS

Home | Current Version | Previous Version | Graphics & Text | Print | Product List | Glossary On
Versions: 1 2 3 4 5 6 7 8 9 10 11 12 13 14 15 16 17 18 19 20 21 22 23 24 25 26 27 28 29 30 31 32 33 34 35 36 37 38 39 40 41 42 43 44 45 46 47 48 49 50
000
ASUS43 KOAX 261810
RWRNE

WEATHER ROUNDUP FOR NEBRASKA
NATIONAL WEATHER SERVICE OMAHA NE
100 PM CDT WED APR 26 2017

NOTES: SATELLITE DATA IS BEING USED TO AUGMENT CLOUD COVER ABOVE
       12000 FEET.
       "FAIR" INDICATES FEW OR NO CLOUDS BELOW 12,000 FEET WITH NO
       SIGNIFICANT WEATHER AND/OR OBSTRUCTIONS TO VISIBILITY.

  * THESE STATIONS DO NOT REPORT WEATHER SUCH AS RAIN...SNOW OR FOG.

NEZ001>004-019>022-054>056-261900-
NEBRASKA PANHANDLE

CITY           SKY/WX    TMP DP  RH WIND       PRES   REMARKS
SCOTTSBLUFF    SUNNY     49  31  49 CALM      29.76F
6HR MIN TEMP:  31; 6HR MAX TEMP:  49;

ALLIANCE       PTSUNNY   40  31  70 N10       29.76F WCI  33
6HR MIN TEMP:  28; 6HR MAX TEMP:  40;

CHADRON        CLOUDY    35  28  75 VRB3      29.81F
6HR MIN TEMP:  29; 6HR MAX TEMP:  36;

KIMBALL        SUNNY     51  28  39 N9        29.75F
SIDNEY         SUNNY     50  33  52 N15G22    29.76F
6HR MIN TEMP:  29; 6HR MAX TEMP:  50;

$$

NEZ057>060-069>072-079>082-261900-
SOUTHWEST NEBRASKA

CITY           SKY/WX    TMP DP  RH WIND       PRES   REMARKS
NORTH PLATTE   PTSUNNY   44  31  60 NW18G28   29.78F
6HR MIN TEMP:  33; 6HR MAX TEMP:  45;

IMPERIAL       SUNNY     47  32  56 N15G23    29.77F
6HR MIN TEMP:  28; 6HR MAX TEMP:  47;

LEXINGTON      CLOUDY    42  32  66 NW18G24   29.76S
MCCOOK         SUNNY     48  31  51 N15G24    29.76F
6HR MIN TEMP:  33; 6HR MAX TEMP:  49;

OGALLALA       SUNNY     47  31  52 N15G23    29.77F
$$

NEZ005>010-023>029-035>040-094-261900-
NORTH CENTRAL NEBRASKA

CITY           SKY/WX    TMP DP  RH WIND       PRES   REMARKS
VALENTINE      CLOUDY    37  26  64 NW17G25   29.78F WCI  27
6HR MIN TEMP:  32; 6HR MAX TEMP:  37;

AINSWORTH      CLOUDY    35  29  78 NW17G26   29.77F WCI  25
BROKEN BOW     CLOUDY    40  30  67 NW18G25   29.75F WCI  31
6HR MIN TEMP:  32; 6HR MAX TEMP:  40;

O`NEILL        CLOUDY    38  29  68 NW25      29.74S WCI  27
ORD            CLOUDY    39  29  67 NW23      29.73F WCI  28
6HR MIN TEMP:  32; 6HR MAX TEMP:  40;

THEDFORD       CLOUDY    37  29  73 NW16G24   29.79F WCI  27
$$

NEZ041-046>049-061>064-073>077-083>087-261900-
SOUTH CENTRAL NEBRASKA

CITY           SKY/WX    TMP DP  RH WIND       PRES   REMARKS
GRAND ISLAND   CLOUDY    42  32  67 N22G28    29.74F
6HR MIN TEMP:  34; 6HR MAX TEMP:  42;

AURORA         CLOUDY    42  32  69 N18G26    29.72F
HASTINGS       CLOUDY    42  31  64 N21       29.75S
6HR MIN TEMP:  34; 6HR MAX TEMP:  42;

HEBRON         CLOUDY    44  32  63 N16G24    29.71F
HOLDREGE       CLOUDY    43  30  61 N18G26    29.74F
KEARNEY *      CLOUDY    43  28  56 N21G28    29.75S
YORK           CLOUDY    41  32  70 NW15G22   29.73F
$$

NEZ011>018-030>034-042>045-261900-
NORTHEAST NEBRASKA

CITY           SKY/WX    TMP DP  RH WIND       PRES   REMARKS
NORFOLK        CLOUDY    37  29  72 NW16G26   29.72R WCI  28
6HR MIN TEMP:  33; 6HR MAX TEMP:  37;

ALBION         CLOUDY    40  32  72 NW20      29.74R WCI  30
BLAIR          CLOUDY    40  33  76 NW24      29.67F WCI  30
FREMONT        CLOUDY    39  33  76 NW17G24   29.72F WCI  30
TEKAMAH        CLOUDY    40  32  73 NW17G28   29.70S WCI  31
6HR MIN TEMP:  36; 6HR MAX TEMP:  41;

WAYNE          CLOUDY    37  33  87 NW15G26   29.72R WCI  27
$$

NEZ050>053-065>068-078-088>093-261900-
SOUTHEAST NEBRASKA

CITY           SKY/WX    TMP DP  RH WIND       PRES   REMARKS
LINCOLN        CLOUDY    43  32  65 NW21      29.71F
6HR MIN TEMP:  37; 6HR MAX TEMP:  43;

OMAHA EPPLEY   CLOUDY    45  34  65 NW23G31   29.67F
6HR MIN TEMP:  37; 6HR MAX TEMP:  45;

BEATRICE       CLOUDY    43  35  71 N21G26    29.69F
FALLS CITY     MOSUNNY   49  36  61 NW21G28   29.64F
6HR MIN TEMP:  39; 6HR MAX TEMP:  49;

NEBRASKA CITY  CLOUDY    45  30  56 N22       29.66F
PLATTSMOUTH    CLOUDY    42  32  65 NW17G25   29.67S
$$

NEZ044-045-051>053-067-261900-
OMAHA AREA

CITY           SKY/WX    TMP DP  RH WIND       PRES   REMARKS
OMAHA EPPLEY   CLOUDY    45  34  65 NW23G31   29.67F
6HR MIN TEMP:  37; 6HR MAX TEMP:  45;

BLAIR          CLOUDY    40  33  76 NW24      29.67F WCI  30
FREMONT        CLOUDY    39  33  76 NW17G24   29.72F WCI  30
MILLARD        CLOUDY    42  34  73 NW16G24   29.69F
OFFUTT AFB     CLOUDY    43  34  70 NW16G25   29.67F
PLATTSMOUTH    CLOUDY    42  32  65 NW17G25   29.67S
WAHOO          CLOUDY    40  31  70 NW18G24   29.70F WCI  31
$$




USA.gov is the U.S. government's official web portal to all federal, state and local government web resources and services.